Weather in Stepnogorsk

Kazakhstan     52°20′47″N   71°52′47″E
temp.,
°C
wind,
m/s
gust,
m/s
humid.,
%
clouds,
%
prec.,
mm/h
press.,
hPa
HPBL,
m
1 december, wed
wed100:00−12sw46865 0.0 102765
03:00−11sw47855 0.0 102783
06:00−11ssw59825 0.0 1026102
09:00−11ssw510815 0.0 1026110
12:00−7sw511789 0.0 1025165
15:00−5ssw512775 0.0 1024177
18:00−7ssw61278100 0.0 1023131
21:00−7ssw6137563 0.0 1022145
2 december, thu
thu200:00−7ssw6147554 0.0 1021163
03:00−6ssw7167471 0.0 1019187
06:00−6ssw7177499 0.0 1018219
09:00−4s81875100 0.0 1016246
12:00−1ssw92074100 0.0 1014339
15:00+1ssw92073100 0.0 1012382
18:00+2ssw92072100 0.0 1010416
21:00+2ssw92173100 0.0 1008453
3 december, fri
fri300:00+2sw91976100 0.0 1008554
03:00+1sw71683100 0.0 1008420
06:00−2wsw61290100 0.0 1010248
09:00−2w4994100 0.0 1013176
12:00−1w5994100 0.0 1016439
15:00−2wsw510886 0.0 1017312
18:00−6wsw614835 0.0 1020265
21:00−7wsw715865 0.0 1022326
4 december, sat
sat400:00−8wsw714905 0.0 1023256
03:00−9wsw715895 0.0 1025280
06:00−9wsw6149014 0.0 1027255
09:00−9wsw612915 0.0 1029194
12:00−7wsw59925 0.0 1031191
15:00−6sw489247 0.0 1032183
18:00−8sw479482 0.0 1032102
21:00−9sw599340 0.0 1033132
5 december, sun
sun500:00−9sw599331 0.0 1033128
03:00−9sw59935 0.0 1031117
06:00−8sw599359 0.0 1030119
09:00−8sw589311 0.0 1029106
12:00−5wsw489262 0.0 1028150
15:00−4wsw489185 0.0 1026149
18:00−6wsw489250 0.0 102698
21:00−7wsw489274 0.0 102697